STARLINK-1685 (46540 NORAD) Tracking and Keplerian Element Data

This shows tracking and keplerian element data for the satellite.

Feedback or suggestion? Click here.




ElementValue
Catalog46540
NameSTARLINK-1685
Epoch Orbit192
Epoch Day304.91667824
Epoch Year2020
RAAN321.5455
Inclination52.9894
Eccentricity0.0001434
Argument of Perigee47.6926
Mean Anonmoly39.3888
Mean Motion15.65836053
Decay Rate-0.00537513
L11 46540U 20070J 20304.91667824 -.00537513 00000-0 -55381-2 0 9990
L22 46540 52.9894 321.5455 0001434 47.6926 39.3888 15.65836053 1922

Live tracking and technical data element details for STARLINK-1685 (NORAD 46540). STARLINK-1685 can be tracked NOW for your location showing map with azimuth and elevation plus other details from your city location.

Track the satellite on the map from your city or location and see movement details for azimuth, elevation, latitude, longitude, range, height, and movement on the map or in text.







IsCatalogInMostPopularTable: catalog: 46540, numindb: 3
Update: records affected: 1



GetName: 46540 STARLINK-1685

Hit Count: updated at: Sat, 31 Oct 2020 09:47:25 GMT